QPF
0.00 0.00 0.00 0.00 0.00 0.00 0.00 0.00 0.00 0.00 0.00 0.00 0.00 0.00 0.00 0.00 0.00 0.00 0.00 0.00 0.00 0.00
0.00 0.00 0.00 0.00 0.00 0.00 0.00 0.00 0.00 0.00 0.00 0.00 0.00 0.00 0.00 0.00 0.00 0.00 0.00 0.00 0.00 0.00
0.00 0.00 0.00 0.00 0.00 0.00 0.00 0.00 0.00 0.00 0.00 0.00 0.00 0.00 0.00 0.00 0.00 0.00 0.00 0.00 0.00 0.00
0.00 0.00 0.00 0.00 0.00 0.00 0.00 0.00 0.00 0.00 0.00 0.00 0.00 0.00 0.00 0.00 0.00 0.00 0.00 0.00 0.00 0.00
0.00 0.00 0.00 0.00 0.00 0.00 0.00 0.00 0.00 0.00 0.00 0.00 0.00 0.00 0.00 0.00 0.00 0.00 0.00 0.00 0.00 0.00
0.00 0.00 0.00 0.00 0.00 0.00 0.00 0.00 0.00 0.00 0.00 0.00 0.00 0.00 0.00 0.00 0.00 0.00 0.00 0.00 0.00 0.00
0.00 0.00 0.00 0.00 0.00 0.00 0.00 0.00 0.00 0.00 0.00 0.00 0.00 0.00 0.00 0.00 0.00 0.00 0.00 0.00 0.00 0.00
0.00 0.00 0.00 0.00 0.00 0.00 0.00 0.00 0.00 0.00 0.00 0.00 0.00 0.00 0.00 0.00 0.00 0.00 0.00 0.00 0.00 0.00
0.00 0.00 0.00 0.00 0.00 0.00 0.00 0.00 0.00 0.00 0.00 0.00 0.00 0.00 0.00 0.00 0.00 0.00 0.00 0.00 0.00 0.00
0.00 0.00 0.00 0.00 0.00 0.00 0.00 0.00 0.00 0.00 0.00 0.00 0.00 0.00 0.00 0.00 0.00 0.00 0.00 0.00 0.00 0.00
0.00 0.00 0.00 0.00 0.00 0.00 0.00 0.00 0.00 0.00 0.00 0.00 0.00 0.00 0.00 0.00 0.00 0.00 0.00 0.00 0.00 0.00
0.00 0.00 0.00 0.00 0.00 0.00 0.00 0.00 0.00 0.00 0.00 0.00 0.00 0.00 0.00 0.00 0.00 0.00 0.00 0.00 0.00 0.00
0.00 0.00 0.00 0.00 0.00 0.00 0.00 0.00 0.00 0.00 0.00 0.00 0.00 0.00 0.00 0.00 0.00 0.00 0.00 0.00 0.00 0.00
0.00 0.00 0.00 0.00 0.00 0.00 0.00 0.00 0.00 0.00 0.00 0.00 0.00 0.00 0.00 0.00 0.00 0.00 0.00 0.00 0.00 0.00
MSLP
1013.81 1013.78 1013.52 1013.25 1013.08 1013.37 1014.03 1014.73 1015.31 1015.78 1016.40 1016.60 1016.69 1016.94 1017.43 1017.72 1017.87 1017.81 1017.72 1017.53 1017.59 1017.74
1013.42 1013.33 1013.34 1013.21 1013.24 1013.73 1014.33 1015.04 1015.54 1015.80 1016.29 1016.06 1016.81 1017.19 1017.42 1017.43 1017.16 1017.02 1017.06 1017.09 1017.11 1017.19
1013.66 1013.43 1013.53 1013.84 1014.17 1014.56 1014.82 1015.11 1015.37 1015.57 1016.41 1016.77 1016.84 1016.91 1016.74 1016.66 1016.59 1016.63 1016.57 1016.56 1016.61 1016.53
1013.83 1013.76 1013.78 1014.01 1014.39 1014.63 1014.81 1014.69 1015.08 1015.75 1015.92 1015.96 1016.10 1016.10 1016.15 1016.26 1016.19 1016.25 1016.25 1016.22 1016.20 1015.98
1014.11 1014.08 1014.19 1014.35 1014.53 1014.72 1015.04 1014.86 1015.21 1015.51 1015.63 1015.56 1015.64 1015.76 1015.83 1015.89 1015.85 1015.88 1015.90 1015.77 1015.63 1015.32
1014.36 1014.33 1014.39 1014.43 1014.48 1014.65 1014.82 1014.92 1015.13 1015.15 1015.23 1015.26 1015.31 1015.33 1015.37 1015.38 1015.34 1015.26 1015.15 1015.11 1015.05 1014.84
1015.00 1014.88 1014.73 1014.72 1014.70 1014.72 1014.85 1014.90 1014.94 1014.94 1015.01 1015.07 1015.12 1015.09 1015.00 1014.97 1014.99 1015.05 1014.96 1014.88 1014.74 1014.49
1014.86 1015.03 1015.09 1015.08 1015.05 1015.06 1014.81 1014.68 1014.87 1014.92 1014.95 1015.06 1015.06 1014.87 1014.78 1014.88 1014.93 1014.91 1014.69 1014.41 1014.18 1013.86
1015.10 1015.09 1015.20 1015.27 1015.07 1014.70 1014.64 1014.76 1014.89 1014.92 1015.06 1015.01 1014.87 1014.74 1014.69 1014.62 1014.52 1014.28 1013.95 1013.62 1013.31 1012.96
1015.06 1015.07 1014.72 1014.62 1014.67 1014.79 1014.93 1014.93 1015.02 1015.03 1014.94 1014.88 1014.77 1014.56 1014.33 1014.16 1013.88 1013.56 1013.20 1012.84 1012.46 1011.98
1015.04 1014.97 1014.88 1014.88 1015.03 1015.03 1014.95 1015.00 1015.07 1015.00 1014.85 1014.76 1014.53 1014.28 1013.94 1013.54 1013.16 1012.81 1012.40 1012.00 1011.56 1011.10
1015.10 1015.21 1015.14 1015.02 1015.13 1015.14 1015.17 1015.15 1015.07 1014.96 1014.90 1014.78 1014.38 1013.94 1013.47 1013.01 1012.60 1012.11 1011.58 1011.10 1010.56 1010.01
1015.27 1015.37 1015.32 1015.39 1015.48 1015.42 1015.36 1015.24 1015.10 1015.01 1014.87 1014.58 1014.05 1013.50 1012.99 1012.54 1012.08 1011.57 1010.91 1010.17 1009.46 1008.85
1015.62 1015.57 1015.59 1015.66 1015.67 1015.61 1015.45 1015.30 1015.33 1015.18 1014.83 1014.35 1013.80 1013.17 1012.59 1012.02 1011.58 1011.05 1010.20 1009.31 1008.38 1007.79
Thickness
5533 5525 5520 5515 5509 5498 5483 5470 5461 5451 5438 5429 5420 5413 5402 5395 5388 5384 5380 5380 5377 5374
5525 5516 5507 5500 5490 5477 5464 5451 5439 5430 5418 5413 5402 5392 5384 5379 5377 5372 5369 5366 5363 5359
5507 5499 5487 5475 5464 5452 5442 5432 5421 5412 5398 5387 5379 5373 5370 5368 5364 5358 5356 5352 5348 5347
5489 5479 5469 5456 5443 5433 5424 5417 5405 5391 5382 5375 5367 5362 5357 5352 5348 5343 5341 5336 5333 5333
5468 5458 5447 5436 5425 5414 5402 5395 5384 5373 5366 5361 5355 5348 5342 5337 5334 5330 5326 5322 5319 5319
5449 5440 5428 5417 5406 5394 5383 5373 5364 5358 5352 5346 5341 5336 5330 5325 5322 5318 5314 5308 5303 5301
5423 5414 5405 5395 5385 5375 5365 5356 5349 5344 5338 5333 5327 5322 5317 5312 5305 5299 5295 5289 5283 5279
5402 5391 5381 5371 5363 5355 5349 5344 5336 5330 5324 5317 5311 5307 5301 5294 5287 5281 5276 5271 5265 5261
5381 5371 5361 5351 5344 5341 5334 5327 5320 5315 5308 5303 5297 5292 5285 5278 5272 5267 5261 5256 5251 5250
5364 5354 5349 5342 5335 5327 5320 5314 5307 5301 5295 5289 5282 5277 5271 5264 5258 5252 5248 5247 5247 5249
5349 5341 5334 5328 5320 5313 5308 5302 5295 5288 5282 5275 5268 5262 5257 5252 5247 5244 5244 5245 5246 5247
5332 5325 5320 5314 5306 5300 5294 5288 5281 5274 5267 5260 5254 5250 5246 5241 5239 5242 5244 5244 5244 5244
5317 5309 5303 5296 5289 5285 5279 5274 5268 5261 5253 5247 5244 5240 5237 5235 5236 5239 5242 5243 5244 5244
5300 5294 5288 5281 5275 5270 5265 5259 5250 5243 5238 5235 5232 5231 5231 5233 5234 5236 5239 5241 5244 5243